contact:dominique.lefevre@mio.osupytheas.fr, maurice.libes@osupytheas.fr, didier.mallarino@osupytheas.fr
Project:EMSO http://www.emso-fr.org/EMSO-France
Depth: 2436.0 m
Title:EMSO Ligure Ouest : Data MII capteur MICROCAT
DateTime_Computer,Latitude,Longitude,Temperature,Conductivity,Pressure,DateTime_Instrument
DateTime_Computer,Latitude,Longitude,degC,S m-1,dbar,DateTime_Instrument
2023-07-05T00:00:31Z,42.805,6.029,13.3028,4.60083,2470.777,2023-7-05T02:02:47Z
2023-07-05T00:03:34Z,42.805,6.029,13.3023,4.60084,2470.787,2023-7-05T02:05:50Z
2023-07-05T00:06:37Z,42.805,6.029,13.3021,4.60082,2470.787,2023-7-05T02:08:53Z
2023-07-05T00:09:40Z,42.805,6.029,13.3026,4.60081,2470.763,2023-7-05T02:11:56Z
2023-07-05T00:12:43Z,42.805,6.029,13.3028,4.60084,2470.777,2023-7-05T02:14:59Z
2023-07-05T00:15:46Z,42.805,6.029,13.3019,4.60081,2470.777,2023-7-05T02:18:02Z
2023-07-05T00:18:49Z,42.805,6.029,13.3020,4.60082,2470.74,2023-7-05T02:21:05Z
2023-07-05T00:21:52Z,42.805,6.029,13.3022,4.60083,2470.717,2023-7-05T02:24:08Z
2023-07-05T00:24:55Z,42.805,6.029,13.3022,4.60083,2470.74,2023-7-05T02:27:11Z
2023-07-05T00:27:58Z,42.805,6.029,13.3024,4.60081,2470.74,2023-7-05T02:30:14Z
2023-07-05T00:31:02Z,42.805,6.029,13.3029,4.60084,2470.763,2023-7-05T02:33:17Z
2023-07-05T00:34:05Z,42.805,6.029,13.3026,4.60084,2470.717,2023-7-05T02:36:20Z
2023-07-05T00:37:08Z,42.805,6.029,13.3021,4.60084,2470.754,2023-7-05T02:39:23Z
2023-07-05T00:40:11Z,42.805,6.029,13.3025,4.60084,2470.717,2023-7-05T02:42:27Z
2023-07-05T00:43:14Z,42.805,6.029,13.3024,4.60083,2470.754,2023-7-05T02:45:30Z
2023-07-05T00:46:17Z,42.805,6.029,13.3029,4.60082,2470.717,2023-7-05T02:48:33Z
2023-07-05T00:49:20Z,42.805,6.029,13.3026,4.60082,2470.717,2023-7-05T02:51:36Z
2023-07-05T00:52:23Z,42.805,6.029,13.3023,4.60083,2470.74,2023-7-05T02:54:39Z
2023-07-05T00:55:26Z,42.805,6.029,13.3024,4.60082,2470.74,2023-7-05T02:57:42Z
2023-07-05T00:58:29Z,42.805,6.029,13.3028,4.60083,2470.754,2023-7-05T03:00:45Z
2023-07-05T01:01:32Z,42.805,6.029,13.3022,4.60084,2470.717,2023-7-05T03:03:48Z
2023-07-05T01:04:35Z,42.805,6.029,13.3023,4.60082,2470.707,2023-7-05T03:06:51Z
2023-07-05T01:07:38Z,42.805,6.029,13.3025,4.60084,2470.693,2023-7-05T03:09:54Z
2023-07-05T01:10:42Z,42.805,6.029,13.3023,4.60083,2470.717,2023-7-05T03:12:57Z
2023-07-05T01:13:45Z,42.805,6.029,13.3022,4.60083,2470.717,2023-7-05T03:16:00Z
2023-07-05T01:16:48Z,42.805,6.029,13.3023,4.60081,2470.717,2023-7-05T03:19:04Z
2023-07-05T01:19:51Z,42.805,6.029,13.3025,4.60081,2470.717,2023-7-05T03:22:07Z
2023-07-05T01:22:54Z,42.805,6.029,13.3022,4.60084,2470.693,2023-7-05T03:25:10Z
2023-07-05T01:25:57Z,42.805,6.029,13.3023,4.60083,2470.717,2023-7-05T03:28:13Z
2023-07-05T01:29:00Z,42.805,6.029,13.3021,4.60083,2470.693,2023-7-05T03:31:16Z
2023-07-05T01:32:03Z,42.805,6.029,13.3024,4.60082,2470.693,2023-7-05T03:34:19Z
2023-07-05T01:35:06Z,42.805,6.029,13.3022,4.60084,2470.73,2023-7-05T03:37:22Z
2023-07-05T01:38:09Z,42.805,6.029,13.3023,4.60083,2470.67,2023-7-05T03:40:25Z
2023-07-05T01:41:12Z,42.805,6.029,13.3023,4.60082,2470.693,2023-7-05T03:43:28Z
2023-07-05T01:44:15Z,42.805,6.029,13.3024,4.60082,2470.684,2023-7-05T03:46:31Z
2023-07-05T01:47:19Z,42.805,6.029,13.3026,4.60082,2470.67,2023-7-05T03:49:34Z
2023-07-05T01:50:22Z,42.805,6.029,13.3023,4.60082,2470.693,2023-7-05T03:52:37Z
2023-07-05T01:53:25Z,42.805,6.029,13.3022,4.60081,2470.693,2023-7-05T03:55:40Z
2023-07-05T01:56:28Z,42.805,6.029,13.3023,4.60082,2470.661,2023-7-05T03:58:44Z
2023-07-05T01:59:31Z,42.805,6.029,13.3024,4.60082,2470.646,2023-7-05T04:01:47Z
2023-07-05T02:02:34Z,42.805,6.029,13.3020,4.60082,2470.67,2023-7-05T04:04:50Z
2023-07-05T02:05:37Z,42.805,6.029,13.3022,4.60081,2470.67,2023-7-05T04:07:53Z
2023-07-05T02:08:40Z,42.805,6.029,13.3021,4.60081,2470.684,2023-7-05T04:10:56Z
2023-07-05T02:11:43Z,42.805,6.029,13.3021,4.60082,2470.67,2023-7-05T04:13:59Z
2023-07-05T02:14:46Z,42.805,6.029,13.3021,4.60081,2470.646,2023-7-05T04:17:02Z
2023-07-05T02:17:49Z,42.805,6.029,13.3019,4.60081,2470.646,2023-7-05T04:20:05Z
2023-07-05T02:20:52Z,42.805,6.029,13.3025,4.60081,2470.661,2023-7-05T04:23:08Z
2023-07-05T02:23:55Z,42.805,6.029,13.3026,4.60081,2470.646,2023-7-05T04:26:11Z
2023-07-05T02:26:58Z,42.805,6.029,13.3024,4.60081,2470.693,2023-7-05T04:29:14Z
2023-07-05T02:30:02Z,42.805,6.029,13.3021,4.60081,2470.684,2023-7-05T04:32:17Z
2023-07-05T02:33:05Z,42.805,6.029,13.3022,4.60081,2470.637,2023-7-05T04:35:20Z
2023-07-05T02:36:08Z,42.805,6.029,13.3023,4.60084,2470.661,2023-7-05T04:38:24Z
2023-07-05T02:39:11Z,42.805,6.029,13.3021,4.60084,2470.624,2023-7-05T04:41:27Z
2023-07-05T02:42:14Z,42.805,6.029,13.3022,4.60083,2470.646,2023-7-05T04:44:30Z
2023-07-05T02:45:17Z,42.805,6.029,13.3024,4.60081,2470.661,2023-7-05T04:47:33Z
2023-07-05T02:48:20Z,42.805,6.029,13.3024,4.60081,2470.646,2023-7-05T04:50:36Z
2023-07-05T02:51:23Z,42.805,6.029,13.3025,4.60080,2470.624,2023-7-05T04:53:39Z
2023-07-05T02:54:26Z,42.805,6.029,13.3022,4.60081,2470.624,2023-7-05T04:56:42Z
2023-07-05T02:57:29Z,42.805,6.029,13.3021,4.60083,2470.646,2023-7-05T04:59:45Z
2023-07-05T03:00:32Z,42.805,6.029,13.3026,4.60081,2470.646,2023-7-05T05:02:48Z
2023-07-05T03:03:35Z,42.805,6.029,13.3024,4.60085,2470.661,2023-7-05T05:05:51Z
2023-07-05T03:06:38Z,42.805,6.029,13.3019,4.60081,2470.646,2023-7-05T05:08:54Z
2023-07-05T03:09:42Z,42.805,6.029,13.3021,4.60081,2470.646,2023-7-05T05:11:57Z
2023-07-05T03:12:45Z,42.805,6.029,13.3022,4.60080,2470.646,2023-7-05T05:15:00Z
2023-07-05T03:15:48Z,42.805,6.029,13.3021,4.60081,2470.661,2023-7-05T05:18:04Z
2023-07-05T03:18:51Z,42.805,6.029,13.3021,4.60079,2470.624,2023-7-05T05:21:07Z
2023-07-05T03:21:54Z,42.805,6.029,13.3027,4.60082,2470.6,2023-7-05T05:24:10Z
2023-07-05T03:24:57Z,42.805,6.029,13.3025,4.60079,2470.646,2023-7-05T05:27:13Z
2023-07-05T03:28:00Z,42.805,6.029,13.3024,4.60079,2470.646,2023-7-05T05:30:16Z
2023-07-05T03:31:03Z,42.805,6.029,13.3022,4.60080,2470.661,2023-7-05T05:33:19Z
2023-07-05T03:34:06Z,42.805,6.029,13.3022,4.60081,2470.624,2023-7-05T05:36:22Z
2023-07-05T03:37:09Z,42.805,6.029,13.3025,4.60080,2470.61,2023-7-05T05:39:25Z
2023-07-05T03:40:12Z,42.805,6.029,13.3020,4.60080,2470.684,2023-7-05T05:42:28Z
2023-07-05T03:43:15Z,42.805,6.029,13.3020,4.60081,2470.646,2023-7-05T05:45:31Z
2023-07-05T03:46:19Z,42.805,6.029,13.3023,4.60080,2470.614,2023-7-05T05:48:34Z
2023-07-05T03:49:22Z,42.805,6.029,13.3021,4.60081,2470.624,2023-7-05T05:51:37Z
2023-07-05T03:52:25Z,42.805,6.029,13.3021,4.60081,2470.624,2023-7-05T05:54:41Z
2023-07-05T03:55:28Z,42.805,6.029,13.3020,4.60080,2470.646,2023-7-05T05:57:44Z
2023-07-05T03:58:31Z,42.805,6.029,13.3022,4.60080,2470.6,2023-7-05T06:00:47Z
2023-07-05T04:01:34Z,42.805,6.029,13.3024,4.60081,2470.624,2023-7-05T06:03:50Z
2023-07-05T04:04:37Z,42.805,6.029,13.3022,4.60080,2470.637,2023-7-05T06:06:53Z
2023-07-05T04:07:40Z,42.805,6.029,13.3024,4.60081,2470.624,2023-7-05T06:09:56Z
2023-07-05T04:10:43Z,42.805,6.029,13.3020,4.60080,2470.661,2023-7-05T06:12:59Z
2023-07-05T04:13:46Z,42.805,6.029,13.3024,4.60081,2470.624,2023-7-05T06:16:02Z
2023-07-05T04:16:49Z,42.805,6.029,13.3021,4.60082,2470.646,2023-7-05T06:19:05Z
2023-07-05T04:19:52Z,42.805,6.029,13.3023,4.60081,2470.67,2023-7-05T06:22:08Z
2023-07-05T04:22:55Z,42.805,6.029,13.3021,4.60081,2470.624,2023-7-05T06:25:11Z
2023-07-05T04:25:59Z,42.805,6.029,13.3023,4.60081,2470.624,2023-7-05T06:28:14Z
2023-07-05T04:29:02Z,42.805,6.029,13.3020,4.60081,2470.661,2023-7-05T06:31:17Z
2023-07-05T04:32:05Z,42.805,6.029,13.3021,4.60081,2470.684,2023-7-05T06:34:21Z
2023-07-05T04:35:08Z,42.805,6.029,13.3025,4.60081,2470.646,2023-7-05T06:37:24Z
2023-07-05T04:38:11Z,42.805,6.029,13.3026,4.60081,2470.67,2023-7-05T06:40:27Z
2023-07-05T04:41:14Z,42.805,6.029,13.3019,4.60080,2470.646,2023-7-05T06:43:30Z
2023-07-05T04:44:17Z,42.805,6.029,13.3027,4.60081,2470.646,2023-7-05T06:46:33Z
2023-07-05T04:47:20Z,42.805,6.029,13.3022,4.60081,2470.661,2023-7-05T06:49:36Z
2023-07-05T04:50:23Z,42.805,6.029,13.3021,4.60082,2470.661,2023-7-05T06:52:39Z
2023-07-05T04:53:26Z,42.805,6.029,13.3019,4.60080,2470.67,2023-7-05T06:55:42Z
2023-07-05T04:56:30Z,42.805,6.029,13.3021,4.60081,2470.646,2023-7-05T06:58:45Z
2023-07-05T04:59:33Z,42.805,6.029,13.3021,4.60081,2470.661,2023-7-05T07:01:48Z
2023-07-05T05:02:36Z,42.805,6.029,13.3023,4.60079,2470.67,2023-7-05T07:04:51Z
2023-07-05T05:05:39Z,42.805,6.029,13.3025,4.60081,2470.67,2023-7-05T07:07:55Z
2023-07-05T05:08:42Z,42.805,6.029,13.3023,4.60080,2470.717,2023-7-05T07:10:58Z
2023-07-05T05:11:45Z,42.805,6.029,13.3018,4.60081,2470.67,2023-7-05T07:14:01Z
2023-07-05T05:14:48Z,42.805,6.029,13.3021,4.60079,2470.656,2023-7-05T07:17:04Z
2023-07-05T05:17:51Z,42.805,6.029,13.3023,4.60081,2470.661,2023-7-05T07:20:07Z
2023-07-05T05:20:54Z,42.805,6.029,13.3021,4.60080,2470.693,2023-7-05T07:23:10Z
2023-07-05T05:23:57Z,42.805,6.029,13.3024,4.60080,2470.693,2023-7-05T07:26:13Z
2023-07-05T05:27:00Z,42.805,6.029,13.3020,4.60080,2470.67,2023-7-05T07:29:16Z
2023-07-05T05:30:03Z,42.805,6.029,13.3018,4.60080,2470.684,2023-7-05T07:32:19Z
2023-07-05T05:33:06Z,42.805,6.029,13.3021,4.60079,2470.73,2023-7-05T07:35:22Z
2023-07-05T05:36:10Z,42.805,6.029,13.3021,4.60079,2470.693,2023-7-05T07:38:25Z
2023-07-05T05:39:13Z,42.805,6.029,13.3019,4.60080,2470.693,2023-7-05T07:41:28Z
2023-07-05T05:42:16Z,42.805,6.029,13.3024,4.60080,2470.693,2023-7-05T07:44:32Z
2023-07-05T05:45:19Z,42.805,6.029,13.3020,4.60081,2470.679,2023-7-05T07:47:35Z
2023-07-05T05:48:22Z,42.805,6.029,13.3024,4.60081,2470.693,2023-7-05T07:50:38Z
2023-07-05T05:51:25Z,42.805,6.029,13.3019,4.60079,2470.684,2023-7-05T07:53:41Z
2023-07-05T05:54:28Z,42.805,6.029,13.3023,4.60082,2470.67,2023-7-05T07:56:44Z
2023-07-05T05:57:31Z,42.805,6.029,13.3023,4.60081,2470.73,2023-7-05T07:59:47Z
2023-07-05T06:00:34Z,42.805,6.029,13.3021,4.60080,2470.707,2023-7-05T08:02:50Z
2023-07-05T06:03:37Z,42.805,6.029,13.3021,4.60082,2470.73,2023-7-05T08:05:53Z
2023-07-05T06:06:40Z,42.805,6.029,13.3024,4.60080,2470.73,2023-7-05T08:08:56Z
2023-07-05T06:09:43Z,42.805,6.029,13.3023,4.60081,2470.74,2023-7-05T08:11:59Z
2023-07-05T06:12:47Z,42.805,6.029,13.3021,4.60079,2470.717,2023-7-05T08:15:02Z
2023-07-05T06:15:50Z,42.805,6.029,13.3022,4.60080,2470.717,2023-7-05T08:18:05Z
2023-07-05T06:18:53Z,42.805,6.029,13.3020,4.60081,2470.717,2023-7-05T08:21:08Z
2023-07-05T06:21:56Z,42.805,6.029,13.3021,4.60080,2470.703,2023-7-05T08:24:12Z
2023-07-05T06:24:59Z,42.805,6.029,13.3024,4.60080,2470.707,2023-7-05T08:27:15Z
2023-07-05T06:28:02Z,42.805,6.029,13.3020,4.60079,2470.717,2023-7-05T08:30:18Z
2023-07-05T06:31:05Z,42.805,6.029,13.3021,4.60080,2470.74,2023-7-05T08:33:21Z
2023-07-05T06:34:08Z,42.805,6.029,13.3023,4.60079,2470.74,2023-7-05T08:36:24Z
2023-07-05T06:37:11Z,42.805,6.029,13.3021,4.60079,2470.717,2023-7-05T08:39:27Z
2023-07-05T06:40:14Z,42.805,6.029,13.3021,4.60081,2470.74,2023-7-05T08:42:30Z
2023-07-05T06:43:17Z,42.805,6.029,13.3019,4.60081,2470.754,2023-7-05T08:45:33Z
2023-07-05T06:46:20Z,42.805,6.029,13.3022,4.60081,2470.74,2023-7-05T08:48:36Z
2023-07-05T06:49:23Z,42.805,6.029,13.3022,4.60081,2470.74,2023-7-05T08:51:39Z
2023-07-05T06:52:27Z,42.805,6.029,13.3020,4.60079,2470.74,2023-7-05T08:54:42Z
2023-07-05T06:55:30Z,42.805,6.029,13.3019,4.60079,2470.787,2023-7-05T08:57:45Z
2023-07-05T06:58:33Z,42.805,6.029,13.3018,4.60080,2470.74,2023-7-05T09:00:48Z
2023-07-05T07:01:36Z,42.805,6.029,13.3022,4.60080,2470.763,2023-7-05T09:03:52Z
2023-07-05T07:04:39Z,42.805,6.029,13.3021,4.60080,2470.754,2023-7-05T09:06:55Z
2023-07-05T07:07:42Z,42.805,6.029,13.3022,4.60080,2470.777,2023-7-05T09:09:58Z
2023-07-05T07:10:45Z,42.805,6.029,13.3021,4.60081,2470.8,2023-7-05T09:13:01Z
2023-07-05T07:13:48Z,42.805,6.029,13.3021,4.60079,2470.777,2023-7-05T09:16:04Z
2023-07-05T07:16:51Z,42.805,6.029,13.3024,4.60080,2470.74,2023-7-05T09:19:07Z
2023-07-05T07:19:54Z,42.805,6.029,13.3024,4.60080,2470.754,2023-7-05T09:22:10Z
2023-07-05T07:22:57Z,42.805,6.029,13.3024,4.60080,2470.74,2023-7-05T09:25:13Z
2023-07-05T07:26:00Z,42.805,6.029,13.3021,4.60080,2470.8,2023-7-05T09:28:16Z
2023-07-05T07:29:03Z,42.805,6.029,13.3022,4.60081,2470.777,2023-7-05T09:31:19Z
2023-07-05T07:32:07Z,42.805,6.029,13.3016,4.60081,2470.777,2023-7-05T09:34:22Z
2023-07-05T07:35:10Z,42.805,6.029,13.3023,4.60081,2470.74,2023-7-05T09:37:25Z
2023-07-05T07:38:13Z,42.805,6.029,13.3021,4.60079,2470.763,2023-7-05T09:40:28Z
2023-07-05T07:41:16Z,42.805,6.029,13.3022,4.60079,2470.787,2023-7-05T09:43:32Z
2023-07-05T07:44:19Z,42.805,6.029,13.3021,4.60079,2470.787,2023-7-05T09:46:35Z
2023-07-05T07:47:22Z,42.805,6.029,13.3021,4.60079,2470.754,2023-7-05T09:49:38Z
2023-07-05T07:50:25Z,42.805,6.029,13.3024,4.60079,2470.824,2023-7-05T09:52:41Z
2023-07-05T07:53:28Z,42.805,6.029,13.3020,4.60079,2470.777,2023-7-05T09:55:44Z
2023-07-05T07:56:31Z,42.805,6.029,13.3021,4.60081,2470.777,2023-7-05T09:58:47Z
2023-07-05T07:59:34Z,42.805,6.029,13.3021,4.60080,2470.777,2023-7-05T10:01:50Z
2023-07-05T08:02:37Z,42.805,6.029,13.3021,4.60079,2470.777,2023-7-05T10:04:53Z
2023-07-05T08:05:40Z,42.805,6.029,13.3023,4.60079,2470.763,2023-7-05T10:07:56Z
2023-07-05T08:08:43Z,42.805,6.029,13.3021,4.60081,2470.777,2023-7-05T10:10:59Z
2023-07-05T08:11:47Z,42.805,6.029,13.3019,4.60080,2470.777,2023-7-05T10:14:02Z
2023-07-05T08:14:50Z,42.805,6.029,13.3023,4.60081,2470.763,2023-7-05T10:17:05Z
2023-07-05T08:17:53Z,42.805,6.029,13.3024,4.60080,2470.787,2023-7-05T10:20:09Z
2023-07-05T08:20:56Z,42.805,6.029,13.3021,4.60079,2470.787,2023-7-05T10:23:12Z
2023-07-05T08:23:59Z,42.805,6.029,13.3020,4.60080,2470.763,2023-7-05T10:26:15Z
2023-07-05T08:27:02Z,42.805,6.029,13.3023,4.60081,2470.787,2023-7-05T10:29:18Z
2023-07-05T08:30:08Z,42.805,6.029,13.3020,4.60081,2470.754,2023-7-05T10:32:21Z
2023-07-05T08:33:08Z,42.805,6.029,13.3021,4.60080,2470.777,2023-7-05T10:35:23Z
2023-07-05T08:36:11Z,42.805,6.029,13.3021,4.60081,2470.74,2023-7-05T10:38:26Z
2023-07-05T08:39:14Z,42.805,6.029,13.3022,4.60081,2470.777,2023-7-05T10:41:30Z
2023-07-05T08:42:17Z,42.805,6.029,13.3021,4.60079,2470.763,2023-7-05T10:44:33Z
2023-07-05T08:45:20Z,42.805,6.029,13.3022,4.60079,2470.763,2023-7-05T10:47:36Z
2023-07-05T08:48:23Z,42.805,6.029,13.3021,4.60081,2470.787,2023-7-05T10:50:39Z
2023-07-05T08:51:26Z,42.805,6.029,13.3021,4.60080,2470.693,2023-7-05T10:53:42Z
2023-07-05T08:54:29Z,42.805,6.029,13.3021,4.60079,2470.777,2023-7-05T10:56:45Z
2023-07-05T08:57:32Z,42.805,6.029,13.3021,4.60080,2470.763,2023-7-05T10:59:48Z
2023-07-05T09:00:35Z,42.805,6.029,13.3022,4.60081,2470.763,2023-7-05T11:02:51Z
2023-07-05T09:03:38Z,42.805,6.029,13.3021,4.60079,2470.754,2023-7-05T11:05:54Z
2023-07-05T09:06:41Z,42.805,6.029,13.3023,4.60079,2470.717,2023-7-05T11:08:57Z
2023-07-05T09:09:45Z,42.805,6.029,13.3021,4.60079,2470.74,2023-7-05T11:12:00Z
2023-07-05T09:12:48Z,42.805,6.029,13.3016,4.60080,2470.777,2023-7-05T11:15:03Z
2023-07-05T09:15:51Z,42.805,6.029,13.3024,4.60079,2470.763,2023-7-05T11:18:06Z
2023-07-05T09:18:54Z,42.805,6.029,13.3019,4.60080,2470.754,2023-7-05T11:21:10Z
2023-07-05T09:21:57Z,42.805,6.029,13.3022,4.60081,2470.74,2023-7-05T11:24:13Z
2023-07-05T09:25:00Z,42.805,6.029,13.3025,4.60080,2470.717,2023-7-05T11:27:16Z
2023-07-05T09:28:03Z,42.805,6.029,13.3022,4.60081,2470.777,2023-7-05T11:30:19Z
2023-07-05T09:31:06Z,42.805,6.029,13.3022,4.60079,2470.717,2023-7-05T11:33:22Z
2023-07-05T09:34:09Z,42.805,6.029,13.3024,4.60080,2470.74,2023-7-05T11:36:25Z
2023-07-05T09:37:12Z,42.805,6.029,13.3021,4.60080,2470.74,2023-7-05T11:39:28Z
2023-07-05T09:40:15Z,42.805,6.029,13.3022,4.60080,2470.73,2023-7-05T11:42:31Z
2023-07-05T09:43:18Z,42.805,6.029,13.3025,4.60080,2470.717,2023-7-05T11:45:34Z
2023-07-05T09:46:22Z,42.805,6.029,13.3021,4.60079,2470.717,2023-7-05T11:48:37Z
2023-07-05T09:49:25Z,42.805,6.029,13.3021,4.60079,2470.717,2023-7-05T11:51:40Z
2023-07-05T09:52:28Z,42.805,6.029,13.3019,4.60079,2470.73,2023-7-05T11:54:44Z
2023-07-05T09:55:31Z,42.805,6.029,13.3026,4.60081,2470.73,2023-7-05T11:57:47Z
2023-07-05T09:58:34Z,42.805,6.029,13.3021,4.60079,2470.754,2023-7-05T12:00:50Z
2023-07-05T10:01:37Z,42.805,6.029,13.3024,4.60079,2470.73,2023-7-05T12:03:53Z
2023-07-05T10:04:40Z,42.805,6.029,13.3022,4.60079,2470.717,2023-7-05T12:06:56Z
2023-07-05T10:07:43Z,42.805,6.029,13.3024,4.60081,2470.693,2023-7-05T12:09:59Z
2023-07-05T10:10:46Z,42.805,6.029,13.3026,4.60081,2470.693,2023-7-05T12:13:02Z
2023-07-05T10:13:49Z,42.805,6.029,13.3023,4.60081,2470.74,2023-7-05T12:16:05Z
2023-07-05T10:16:52Z,42.805,6.029,13.3021,4.60080,2470.707,2023-7-05T12:19:08Z
2023-07-05T10:19:55Z,42.805,6.029,13.3022,4.60079,2470.693,2023-7-05T12:22:11Z
2023-07-05T10:22:59Z,42.805,6.029,13.3022,4.60080,2470.707,2023-7-05T12:25:14Z
2023-07-05T10:26:02Z,42.805,6.029,13.3024,4.60081,2470.73,2023-7-05T12:28:17Z
2023-07-05T10:29:05Z,42.805,6.029,13.3021,4.60080,2470.717,2023-7-05T12:31:21Z
2023-07-05T10:32:06Z,42.805,6.029,13.3021,4.60081,2470.717,2023-7-05T12:34:22Z
2023-07-05T10:35:09Z,42.805,6.029,13.3020,4.60081,2470.717,2023-7-05T12:37:25Z
2023-07-05T10:38:12Z,42.805,6.029,13.3023,4.60080,2470.693,2023-7-05T12:40:28Z
2023-07-05T10:41:15Z,42.805,6.029,13.3020,4.60079,2470.693,2023-7-05T12:43:31Z
2023-07-05T10:44:19Z,42.805,6.029,13.3020,4.60080,2470.717,2023-7-05T12:46:34Z
2023-07-05T10:47:22Z,42.805,6.029,13.3019,4.60079,2470.67,2023-7-05T12:49:37Z
2023-07-05T10:50:25Z,42.805,6.029,13.3024,4.60080,2470.693,2023-7-05T12:52:40Z
2023-07-05T10:53:28Z,42.805,6.029,13.3021,4.60080,2470.693,2023-7-05T12:55:44Z
2023-07-05T10:56:31Z,42.805,6.029,13.3022,4.60080,2470.67,2023-7-05T12:58:47Z
2023-07-05T10:59:34Z,42.805,6.029,13.3020,4.60081,2470.693,2023-7-05T13:01:50Z
2023-07-05T11:02:37Z,42.805,6.029,13.3024,4.60079,2470.717,2023-7-05T13:04:53Z
2023-07-05T11:05:40Z,42.805,6.029,13.3021,4.60080,2470.693,2023-7-05T13:07:56Z
2023-07-05T11:08:43Z,42.805,6.029,13.3024,4.60080,2470.67,2023-7-05T13:10:59Z
2023-07-05T11:11:46Z,42.805,6.029,13.3024,4.60079,2470.693,2023-7-05T13:14:02Z
2023-07-05T11:14:49Z,42.805,6.029,13.3022,4.60079,2470.717,2023-7-05T13:17:05Z
2023-07-05T11:17:52Z,42.805,6.029,13.3021,4.60079,2470.693,2023-7-05T13:20:08Z
2023-07-05T11:20:55Z,42.805,6.029,13.3021,4.60079,2470.67,2023-7-05T13:23:11Z
2023-07-05T11:23:59Z,42.805,6.029,13.3022,4.60081,2470.693,2023-7-05T13:26:14Z
2023-07-05T11:27:02Z,42.805,6.029,13.3020,4.60081,2470.67,2023-7-05T13:29:17Z
2023-07-05T11:30:05Z,42.805,6.029,13.3020,4.60079,2470.693,2023-7-05T13:32:21Z
2023-07-05T11:33:08Z,42.805,6.029,13.3023,4.60081,2470.693,2023-7-05T13:35:24Z
2023-07-05T11:36:11Z,42.805,6.029,13.3021,4.60080,2470.646,2023-7-05T13:38:27Z
2023-07-05T11:39:14Z,42.805,6.029,13.3024,4.60081,2470.684,2023-7-05T13:41:30Z
2023-07-05T11:42:17Z,42.805,6.029,13.3023,4.60081,2470.67,2023-7-05T13:44:33Z
2023-07-05T11:45:20Z,42.805,6.029,13.3019,4.60081,2470.661,2023-7-05T13:47:36Z
2023-07-05T11:48:23Z,42.805,6.029,13.3019,4.60079,2470.661,2023-7-05T13:50:39Z
2023-07-05T11:51:26Z,42.805,6.029,13.3021,4.60079,2470.67,2023-7-05T13:53:42Z
2023-07-05T11:54:29Z,42.805,6.029,13.3024,4.60079,2470.684,2023-7-05T13:56:45Z
2023-07-05T11:57:32Z,42.805,6.029,13.3023,4.60079,2470.684,2023-7-05T13:59:48Z
2023-07-05T12:00:36Z,42.805,6.029,13.3021,4.60079,2470.661,2023-7-05T14:02:51Z
2023-07-05T12:03:39Z,42.805,6.029,13.3020,4.60079,2470.646,2023-7-05T14:05:54Z
2023-07-05T12:06:42Z,42.805,6.029,13.3021,4.60079,2470.637,2023-7-05T14:08:58Z
2023-07-05T12:09:45Z,42.805,6.029,13.3024,4.60080,2470.656,2023-7-05T14:12:01Z
2023-07-05T12:12:48Z,42.805,6.029,13.3021,4.60079,2470.67,2023-7-05T14:15:04Z
2023-07-05T12:15:51Z,42.805,6.029,13.3021,4.60080,2470.637,2023-7-05T14:18:07Z
2023-07-05T12:18:54Z,42.805,6.029,13.3024,4.60079,2470.67,2023-7-05T14:21:10Z
2023-07-05T12:21:57Z,42.805,6.029,13.3023,4.60080,2470.646,2023-7-05T14:24:13Z
2023-07-05T12:25:00Z,42.805,6.029,13.3021,4.60080,2470.637,2023-7-05T14:27:16Z
2023-07-05T12:28:03Z,42.805,6.029,13.3018,4.60080,2470.624,2023-7-05T14:30:19Z
2023-07-05T12:31:06Z,42.805,6.029,13.3020,4.60080,2470.624,2023-7-05T14:33:22Z
2023-07-05T12:34:09Z,42.805,6.029,13.3018,4.60079,2470.637,2023-7-05T14:36:25Z
2023-07-05T12:37:13Z,42.805,6.029,13.3021,4.60080,2470.624,2023-7-05T14:39:28Z
2023-07-05T12:40:16Z,42.805,6.029,13.3023,4.60079,2470.6,2023-7-05T14:42:31Z
2023-07-05T12:43:19Z,42.805,6.029,13.3019,4.60079,2470.646,2023-7-05T14:45:35Z
2023-07-05T12:46:22Z,42.805,6.029,13.3023,4.60081,2470.646,2023-7-05T14:48:38Z
2023-07-05T12:49:25Z,42.805,6.029,13.3023,4.60080,2470.646,2023-7-05T14:51:41Z
2023-07-05T12:52:28Z,42.805,6.029,13.3022,4.60079,2470.624,2023-7-05T14:54:44Z
2023-07-05T12:55:31Z,42.805,6.029,13.3019,4.60080,2470.624,2023-7-05T14:57:47Z
2023-07-05T12:58:34Z,42.805,6.029,13.3021,4.60079,2470.624,2023-7-05T15:00:50Z
2023-07-05T13:01:37Z,42.805,6.029,13.3022,4.60079,2470.624,2023-7-05T15:03:53Z
2023-07-05T13:04:40Z,42.805,6.029,13.3023,4.60080,2470.614,2023-7-05T15:06:56Z
2023-07-05T13:07:43Z,42.805,6.029,13.3020,4.60079,2470.614,2023-7-05T15:09:59Z
2023-07-05T13:10:46Z,42.805,6.029,13.3022,4.60079,2470.624,2023-7-05T15:13:02Z
2023-07-05T13:13:50Z,42.805,6.029,13.3024,4.60080,2470.614,2023-7-05T15:16:05Z
2023-07-05T13:16:53Z,42.805,6.029,13.3024,4.60079,2470.577,2023-7-05T15:19:08Z
2023-07-05T13:19:56Z,42.805,6.029,13.3022,4.60079,2470.6,2023-7-05T15:22:12Z
2023-07-05T13:22:59Z,42.805,6.029,13.3027,4.60080,2470.6,2023-7-05T15:25:15Z
2023-07-05T13:26:02Z,42.805,6.029,13.3021,4.60079,2470.6,2023-7-05T15:28:18Z
2023-07-05T13:29:05Z,42.805,6.029,13.3019,4.60079,2470.614,2023-7-05T15:31:21Z
2023-07-05T13:32:08Z,42.805,6.029,13.3022,4.60080,2470.624,2023-7-05T15:34:24Z
2023-07-05T13:35:11Z,42.805,6.029,13.3021,4.60079,2470.6,2023-7-05T15:37:27Z
2023-07-05T13:38:14Z,42.805,6.029,13.3018,4.60080,2470.6,2023-7-05T15:40:30Z
2023-07-05T13:41:17Z,42.805,6.029,13.3020,4.60079,2470.591,2023-7-05T15:43:33Z
2023-07-05T13:44:20Z,42.805,6.029,13.3023,4.60081,2470.6,2023-7-05T15:46:36Z
2023-07-05T13:47:23Z,42.805,6.029,13.3024,4.60080,2470.614,2023-7-05T15:49:39Z
2023-07-05T13:50:27Z,42.805,6.029,13.3024,4.60081,2470.591,2023-7-05T15:52:42Z
2023-07-05T13:53:30Z,42.805,6.029,13.3021,4.60081,2470.6,2023-7-05T15:55:45Z
2023-07-05T13:56:33Z,42.805,6.029,13.3021,4.60079,2470.6,2023-7-05T15:58:49Z
2023-07-05T13:59:36Z,42.805,6.029,13.3017,4.60079,2470.563,2023-7-05T16:01:52Z
2023-07-05T14:02:39Z,42.805,6.029,13.3024,4.60080,2470.586,2023-7-05T16:04:55Z
2023-07-05T14:05:42Z,42.805,6.029,13.3024,4.60079,2470.6,2023-7-05T16:07:58Z
2023-07-05T14:08:45Z,42.805,6.029,13.3024,4.60079,2470.577,2023-7-05T16:11:01Z
2023-07-05T14:11:48Z,42.805,6.029,13.3021,4.60080,2470.577,2023-7-05T16:14:04Z
2023-07-05T14:14:51Z,42.805,6.029,13.3021,4.60081,2470.614,2023-7-05T16:17:07Z
2023-07-05T14:17:54Z,42.805,6.029,13.3026,4.60079,2470.553,2023-7-05T16:20:10Z
2023-07-05T14:20:57Z,42.805,6.029,13.3025,4.60079,2470.567,2023-7-05T16:23:13Z
2023-07-05T14:24:00Z,42.805,6.029,13.3025,4.60080,2470.614,2023-7-05T16:26:16Z
2023-07-05T14:27:04Z,42.805,6.029,13.3018,4.60080,2470.553,2023-7-05T16:29:19Z
2023-07-05T14:30:07Z,42.805,6.029,13.3024,4.60080,2470.553,2023-7-05T16:32:22Z
2023-07-05T14:33:10Z,42.805,6.029,13.3022,4.60079,2470.6,2023-7-05T16:35:26Z
2023-07-05T14:36:13Z,42.805,6.029,13.3024,4.60079,2470.614,2023-7-05T16:38:29Z
2023-07-05T14:39:16Z,42.805,6.029,13.3022,4.60081,2470.591,2023-7-05T16:41:32Z
2023-07-05T14:42:19Z,42.805,6.029,13.3021,4.60079,2470.577,2023-7-05T16:44:35Z
2023-07-05T14:45:22Z,42.805,6.029,13.3026,4.60079,2470.553,2023-7-05T16:47:38Z
2023-07-05T14:48:25Z,42.805,6.029,13.3023,4.60079,2470.591,2023-7-05T16:50:41Z
2023-07-05T14:51:28Z,42.805,6.029,13.3021,4.60079,2470.577,2023-7-05T16:53:44Z
2023-07-05T14:54:31Z,42.805,6.029,13.3023,4.60079,2470.577,2023-7-05T16:56:47Z
2023-07-05T14:57:34Z,42.805,6.029,13.3024,4.60079,2470.53,2023-7-05T16:59:50Z
2023-07-05T15:00:37Z,42.805,6.029,13.3021,4.60081,2470.577,2023-7-05T17:02:53Z
2023-07-05T15:03:41Z,42.805,6.029,13.3018,4.60081,2470.577,2023-7-05T17:05:56Z
2023-07-05T15:06:44Z,42.805,6.029,13.3023,4.60081,2470.553,2023-7-05T17:08:59Z
2023-07-05T15:09:47Z,42.805,6.029,13.3021,4.60079,2470.591,2023-7-05T17:12:03Z
2023-07-05T15:12:50Z,42.805,6.029,13.3026,4.60079,2470.567,2023-7-05T17:15:06Z